STARLINK-11107, 59708

Orbit data source: Space-Track

STARLINK-11107, 59708 is a payload satellite owned by SpaceX/Seattle (US) in LEO that was launched on Fri, 10 May 2024 UTC via an FALCON 9 launch vehicle from the Air Force Western Test Range (AFWTR). Payload-class satellites include a variety of spacecraft equipped with specific instruments for various scientific and technological missions. These include communications satellites like Starlink; space stations such as the ISS; scientific satellites like the Hubble; Earth observation satellites from companies like Planet Labs, Umbra, and HawkEye 360; GPS; miniature CubeSats for education and research; and military/defense satellites.

Loading next visibility...
Identifier
59708, 2024-088A
Orbit
LEO
Country
Flag of USUS
Related business
Manufacturer
SpaceX/Seattle
Mission
Operational Commercial Communications
Bus & Motor
STARLINK V2MD, Unknown motor
Mass
960 kg wet, ~910 kg dry
Launch date (UTC)
2024-05-10 (2 years ago)
Launch vehicle
FALCON 9
Launch site
Air Force Western Test Range (AFWTR)
Object type
Payload
Rocket body
Debris
Shape & HBR
Box + 2 Pan, 18.1 m
Radar Cross Section
36.964 m², Large (>1 m²)

Expand to show TLE details & history
Last TLE update: 2 days ago

TLE from 2 days ago
0 STARLINK-11107
1 59708U 24088A   26171.30619981 -.00001179  00000-0 -48838-5 0  9991
2 59708  53.1596 180.1007 0000892  75.1065 285.0051 15.69692485122371
Epoch: 2026-06-20T07:20Z
TLE epoch observation values (Epoch: 2026-06-20T07:20:55.663Z)
Latitude
-0.00008°
Longitude
161.34599°
Altitude
360.536 km
Speed
7.694 km/s
True Right ascension
12h 00m 24s
True Declination
0° 00' 00"
Sunlit
Object was in daylight at epoch
Visualization orbit readout
Latitude
Unknown
Longitude
Unknown
Altitude
Unknown
Speed
Unknown
Apparent Right ascension
Unknown
Apparent Declination
Unknown
Sunlit
N/A
Visualization observer readout
Local Sidereal Time
00:49:59
Azimuth
Unknown
Elevation
Unknown
Doppler factor
Unknown
Orbital elements
Apogee altitude
360.639 km
Perigee altitude
359.437 km
Semi-major axis
6,738.175 km
Eccentricity
0.00009
Inclination
53.1596°
RAAN
180.1007°
Arg. of periapsis
75.1065°
True anomaly
284.99523°
Mean anomaly
285.0051°
Eccentric anomaly
285.00016°
Mean motion
3.92401 °/min
Orbital period
91.74 mins
BSTAR
-0.0000048838
Loading maneuver chart data...
Computing Atmospheric mass density...
Loading historical data...
Loading historical data...
Loading historical data...
Loading historical data...
Loading historical data...
Loading historical data...
Loading historical data...

Documentation

Showing up to 5 results
|